When you browse on this site, cookies collect data to enhance your experience and personalize the content and advertising you see.
Visit our Privacy Policy to learn more. By continuing to use the site, you agree to this use of cookies and data.
  • In Deutschland
  • Länderverzeichnis
  • Für 7 Tage
  • Wassertemperatur
  • Satellitenkarten
  • Wetterkarte
  • Widgets
  • user-avatar
    Anmelden

    Stündliche Wetter Cairns

    Heute, 16 Januar, Mittwoch

    Zeit Temperatur Niederschläge Wind Luftdruck Luftfeuchtigkeit
    00:00 +27°C° 0.2 mm 4 m/S 757 mmHg 93%
    01:00 +27°C° 0.2 mm 4 m/S 756 mmHg 93%
    02:00 +27°C° 0.1 mm 4 m/S 756 mmHg 93%
    03:00 +27°C° 0.1 mm 4 m/S 756 mmHg 93%
    04:00 +26°C° 0 mm 4 m/S 756 mmHg 93%
    05:00 +27°C° 0.1 mm 4 m/S 756 mmHg 92%
    06:00 +27°C° 0.1 mm 4 m/S 756 mmHg 90%
    07:00 +27°C° 0.1 mm 4 m/S 757 mmHg 89%
    08:00 +29°C° 0 mm 4 m/S 757 mmHg 82%
    09:00 +30°C° 0 mm 4 m/S 757 mmHg 74%
    10:00 +33°C° 0 mm 5 m/S 756 mmHg 66%
    11:00 +34°C° 0 mm 5 m/S 756 mmHg 63%
    12:00 +34°C° 0 mm 5 m/S 756 mmHg 59%
    13:00 +35°C° 0 mm 5 m/S 755 mmHg 56%
    14:00 +35°C° 0 mm 5 m/S 755 mmHg 58%
    15:00 +34°C° 0 mm 5 m/S 755 mmHg 59%
    16:00 +34°C° 0 mm 5 m/S 755 mmHg 60%
    17:00 +32°C° 0 mm 5 m/S 755 mmHg 67%
    18:00 +30°C° 0 mm 4 m/S 755 mmHg 73%
    19:00 +28°C° 0 mm 4 m/S 756 mmHg 80%
    20:00 +28°C° 0 mm 4 m/S 756 mmHg 83%
    21:00 +27°C° 0 mm 3 m/S 756 mmHg 87%
    22:00 +27°C° 0 mm 3 m/S 757 mmHg 90%
    23:00 +27°C° 0.1 mm 3 m/S 757 mmHg 90%

    Morgen, 17 Januar, Donnerstag

    Zeit Temperatur Niederschläge Wind Luftdruck Luftfeuchtigkeit
    00:00 +27°C° 0.1 mm 3 m/S 756 mmHg 90%
    01:00 +27°C° 0.1 mm 3 m/S 756 mmHg 90%
    02:00 +27°C° 0 mm 3 m/S 756 mmHg 91%
    03:00 +26°C° 0 mm 3 m/S 756 mmHg 91%
    04:00 +26°C° 0 mm 3 m/S 756 mmHg 92%
    05:00 +26°C° 0 mm 3 m/S 756 mmHg 90%
    06:00 +27°C° 0 mm 3 m/S 756 mmHg 89%
    07:00 +27°C° 0 mm 3 m/S 756 mmHg 88%
    08:00 +28°C° 0 mm 3 m/S 756 mmHg 80%
    09:00 +30°C° 0 mm 3 m/S 756 mmHg 72%
    10:00 +33°C° 0 mm 3 m/S 756 mmHg 64%
    11:00 +33°C° 0 mm 4 m/S 756 mmHg 62%
    12:00 +34°C° 0 mm 4 m/S 756 mmHg 59%
    13:00 +35°C° 0 mm 4 m/S 755 mmHg 56%
    14:00 +35°C° 0 mm 4 m/S 755 mmHg 58%
    15:00 +34°C° 0 mm 5 m/S 754 mmHg 60%
    16:00 +34°C° 0 mm 5 m/S 754 mmHg 61%
    17:00 +32°C° 0 mm 4 m/S 754 mmHg 68%
    18:00 +30°C° 0 mm 4 m/S 755 mmHg 74%
    19:00 +28°C° 0 mm 4 m/S 755 mmHg 80%
    20:00 +28°C° 0 mm 3 m/S 756 mmHg 84%
    21:00 +27°C° 0 mm 3 m/S 756 mmHg 87%
    22:00 +26°C° 0 mm 3 m/S 757 mmHg 90%
    23:00 +26°C° 0 mm 3 m/S 756 mmHg 91%

    übermorgen, 18 Januar, Freitag

    Zeit Temperatur Niederschläge Wind Luftdruck Luftfeuchtigkeit
    00:00 +26°C° 0 mm 3 m/S 756 mmHg 92%
    01:00 +26°C° 0 mm 3 m/S 756 mmHg 93%
    02:00 +26°C° 0 mm 3 m/S 755 mmHg 94%
    03:00 +26°C° 0 mm 3 m/S 755 mmHg 94%
    04:00 +26°C° 0 mm 2 m/S 755 mmHg 95%
    05:00 +27°C° 0.1 mm 2 m/S 755 mmHg 93%
    06:00 +27°C° 0.1 mm 2 m/S 756 mmHg 92%
    07:00 +28°C° 0.1 mm 2 m/S 756 mmHg 90%
    08:00 +29°C° 0.1 mm 2 m/S 757 mmHg 84%
    09:00 +31°C° 0.1 mm 3 m/S 757 mmHg 77%
    10:00 +33°C° 0.1 mm 3 m/S 757 mmHg 71%
    11:00 +34°C° 0.2 mm 3 m/S 756 mmHg 69%
    12:00 +34°C° 0.2 mm 3 m/S 756 mmHg 67%
    13:00 +35°C° 0.2 mm 3 m/S 756 mmHg 65%
    14:00 +34°C° 0.1 mm 4 m/S 755 mmHg 67%
    15:00 +34°C° 0.1 mm 4 m/S 755 mmHg 69%
    16:00 +34°C° 0.1 mm 4 m/S 755 mmHg 71%
    17:00 +31°C° 0.2 mm 3 m/S 755 mmHg 78%
    18:00 +30°C° 0.2 mm 3 m/S 756 mmHg 84%
    19:00 +29°C° 0.2 mm 3 m/S 756 mmHg 91%
    20:00 +28°C° 0.1 mm 2 m/S 757 mmHg 93%
    21:00 +28°C° 0.1 mm 2 m/S 757 mmHg 94%
    22:00 +28°C° 0.1 mm 2 m/S 758 mmHg 96%
    23:00 +28°C° 0.1 mm 2 m/S 758 mmHg 96%

    19 Januar, Samstag

    Zeit Temperatur Niederschläge Wind Luftdruck Luftfeuchtigkeit
    00:00 +27°C° 0.1 mm 3 m/S 757 mmHg 96%
    01:00 +27°C° 0.1 mm 3 m/S 757 mmHg 95%
    02:00 +27°C° 0.1 mm 3 m/S 757 mmHg 95%
    03:00 +27°C° 0.1 mm 2 m/S 756 mmHg 96%
    04:00 +27°C° 0.1 mm 2 m/S 756 mmHg 96%
    05:00 +27°C° 0 mm 2 m/S 757 mmHg 94%
    06:00 +27°C° 0 mm 3 m/S 757 mmHg 93%
    07:00 +28°C° 0 mm 3 m/S 757 mmHg 92%
    08:00 +29°C° 0.1 mm 3 m/S 758 mmHg 84%
    09:00 +31°C° 0.1 mm 3 m/S 758 mmHg 77%
    10:00 +33°C° 0.1 mm 3 m/S 758 mmHg 70%
    11:00 +34°C° 0.2 mm 3 m/S 757 mmHg 68%
    12:00 +34°C° 0.2 mm 4 m/S 757 mmHg 67%
    13:00 +35°C° 0.2 mm 4 m/S 756 mmHg 65%
    14:00 +35°C° 0.1 mm 4 m/S 756 mmHg 67%
    15:00 +34°C° 0.1 mm 4 m/S 755 mmHg 68%
    16:00 +34°C° 0.1 mm 4 m/S 755 mmHg 69%
    17:00 +32°C° 0.3 mm 4 m/S 755 mmHg 76%
    18:00 +30°C° 0.3 mm 4 m/S 756 mmHg 82%
    19:00 +29°C° 0.3 mm 3 m/S 756 mmHg 89%
    20:00 +28°C° 0.4 mm 3 m/S 757 mmHg 90%
    21:00 +28°C° 0.4 mm 4 m/S 757 mmHg 92%
    22:00 +28°C° 0.4 mm 4 m/S 758 mmHg 93%
    23:00 +28°C° 0.1 mm 3 m/S 758 mmHg 94%

    20 Januar, Sonntag

    Zeit Temperatur Niederschläge Wind Luftdruck Luftfeuchtigkeit
    00:00 +27°C° 0.1 mm 3 m/S 757 mmHg 94%
    01:00 +27°C° 0.1 mm 3 m/S 757 mmHg 95%
    02:00 +27°C° 0.1 mm 3 m/S 756 mmHg 95%
    03:00 +27°C° 0.1 mm 3 m/S 756 mmHg 95%
    04:00 +27°C° 0.1 mm 3 m/S 756 mmHg 95%
    05:00 +27°C° 0.1 mm 3 m/S 756 mmHg 94%
    06:00 +27°C° 0.1 mm 3 m/S 757 mmHg 93%
    07:00 +27°C° 0.1 mm 4 m/S 757 mmHg 93%
    08:00 +27°C° 0.2 mm 4 m/S 757 mmHg 91%
    09:00 +28°C° 0.2 mm 4 m/S 757 mmHg 89%
    10:00 +28°C° 0.2 mm 4 m/S 758 mmHg 88%
    11:00 +30°C° 0.1 mm 4 m/S 757 mmHg 77%
    12:00 +32°C° 0.1 mm 4 m/S 757 mmHg 66%
    13:00 +34°C° 0.1 mm 5 m/S 756 mmHg 55%
    14:00 +34°C° 0 mm 5 m/S 756 mmHg 56%
    15:00 +34°C° 0 mm 5 m/S 756 mmHg 56%
    16:00 +34°C° 0 mm 5 m/S 755 mmHg 56%
    17:00 +32°C° 0 mm 4 m/S 756 mmHg 65%
    18:00 +29°C° 0 mm 4 m/S 756 mmHg 73%
    19:00 +28°C° 0 mm 3 m/S 757 mmHg 82%
    20:00 +27°C° 0 mm 3 m/S 757 mmHg 85%
    21:00 +27°C° 0 mm 3 m/S 757 mmHg 88%
    22:00 +27°C° 0 mm 4 m/S 758 mmHg 92%
    23:00 +27°C° 0.2 mm 4 m/S 757 mmHg 92%

    21 Januar, Montag

    Zeit Temperatur Niederschläge Wind Luftdruck Luftfeuchtigkeit
    00:00 +27°C° 0.2 mm 4 m/S 757 mmHg 92%
    01:00 +27°C° 0.2 mm 4 m/S 756 mmHg 93%
    02:00 +26°C° 0.4 mm 4 m/S 756 mmHg 93%
    03:00 +26°C° 0.4 mm 4 m/S 756 mmHg 94%
    04:00 +26°C° 0.4 mm 3 m/S 756 mmHg 95%
    05:00 +26°C° 0.4 mm 4 m/S 756 mmHg 94%
    06:00 +27°C° 0.4 mm 4 m/S 756 mmHg 94%
    07:00 +27°C° 0.4 mm 4 m/S 757 mmHg 93%
    08:00 +28°C° 0.2 mm 4 m/S 757 mmHg 87%
    09:00 +29°C° 0.2 mm 4 m/S 757 mmHg 82%
    10:00 +30°C° 0.2 mm 4 m/S 757 mmHg 76%
    11:00 +32°C° 0.1 mm 4 m/S 757 mmHg 73%
    12:00 +33°C° 0.1 mm 5 m/S 756 mmHg 69%
    13:00 +34°C° 0.1 mm 5 m/S 756 mmHg 66%
    14:00 +33°C° 0.3 mm 5 m/S 756 mmHg 69%
    15:00 +32°C° 0.3 mm 5 m/S 755 mmHg 73%
    16:00 +30°C° 0.3 mm 4 m/S 755 mmHg 76%
    17:00 +29°C° 0.3 mm 4 m/S 756 mmHg 81%
    18:00 +28°C° 0.3 mm 4 m/S 756 mmHg 86%
    19:00 +27°C° 0.3 mm 4 m/S 756 mmHg 91%
    20:00 +27°C° 0.1 mm 4 m/S 757 mmHg 92%
    21:00 +27°C° 0.1 mm 3 m/S 757 mmHg 94%
    22:00 +27°C° 0.1 mm 3 m/S 758 mmHg 95%
    23:00 +27°C° 0.1 mm 3 m/S 757 mmHg 95%
    Mehr zeigen